EHI
0 0 0 0 0 0 0 0 0 0 0 0 1 2 3 4 4 3 2 1 0 0 1 2 4 3 2 2 2 2 3 2 1 2 2 2 1 2 2 1 0 0 0 0
0 0 0 0 0 0 0 0 0 0 0 0 0 1 3 4 5 4 3 1 0 0 0 1 2 2 1 1 1 1 2 2 1 1 1 1 1 1 1 0 0 0 0 0
0 0 0 0 0 0 0 0 0 0 0 0 0 1 2 3 4 5 4 1 0 0 0 0 1 1 0 0 0 0 1 1 1 0 0 0 0 0 0 0 0 0 0 0
0 0 0 0 0 0 0 0 1 1 0 0 0 1 2 2 2 3 3 1 1 1 1 0 0 0 0 0 0 0 0 0 1 0 0 0 0 0 0 0 0 0 0 0
0 0 0 0 0 0 0 0 1 1 1 0 0 1 1 1 1 2 2 1 1 1 1 0 0 0 0 0 0 0 0 0 0 0 0 0 0 0 0 0 0 0 0 0
0 0 0 0 0 0 0 0 1 1 1 1 0 0 0 0 0 1 2 1 0 0 0 0 0 0 0 0 0 0 0 0 0 0 0 0 0 0 0 0 0 0 0 0
0 0 0 0 0 0 0 1 1 1 1 1 0 0 0 0 0 1 1 0 0 0 0 0 0 0 0 0 0 0 0 0 0 0 0 0 0 0 0 0 0 0 0 0
0 0 0 0 0 0 1 2 2 1 0 0 0 0 0 0 0 0 0 0 0 0 1 1 1 0 0 0 0 0 0 0 0 0 0 0 0 0 0 0 0 0 0 0
0 0 0 0 0 0 1 2 2 1 0 0 0 0 0 0 0 0 0 0 0 0 1 2 2 1 0 0 0 0 0 0 0 0 0 0 0 0 0 0 0 0 0 0
0 0 0 0 0 0 1 2 2 1 0 0 0 0 0 0 0 0 0 0 0 0 0 1 2 1 0 0 0 0 0 0 0 0 0 0 0 0 0 0 0 0 0 0
0 0 0 0 0 0 0 1 1 1 0 0 0 0 0 0 0 0 0 0 0 0 0 0 1 1 0 0 0 0 0 0 0 0 0 0 0 0 0 0 0 0 0 0
0 0 0 0 0 0 0 0 0 0 0 0 0 0 0 0 0 0 0 0 0 0 0 0 0 0 0 0 0 0 0 0 0 0 0 0 0 0 0 0 0 0 0 0
0 0 0 0 0 0 0 0 0 0 0 0 0 0 0 0 0 0 0 0 1 0 0 0 0 0 0 0 0 0 0 0 0 0 0 0 0 0 0 0 0 0 0 0
0 0 0 0 0 0 0 0 0 0 0 0 0 0 0 0 0 0 0 0 0 0 0 0 0 0 0 0 0 0 0 0 0 0 0 0 0 0 0 0 0 0 0 0
0 0 0 0 0 0 0 0 0 0 0 0 0 0 0 0 0 0 0 0 0 0 0 0 0 0 0 0 0 0 0 0 0 0 0 0 0 0 0 0 0 0 0 0
0 0 0 0 0 0 0 0 0 0 0 0 0 0 0 0 0 0 0 0 0 0 0 0 0 0 0 0 0 0 0 0 0 0 0 0 0 0 0 0 0 0 0 0
0 0 0 0 0 0 0 0 0 0 0 0 0 0 0 0 0 0 0 0 0 0 0 0 0 0 0 0 0 0 0 0 0 0 0 0 0 0 0 0 0 0 0 0
0 0 0 0 0 0 0 0 0 0 0 0 0 0 0 0 0 0 0 0 0 0 0 0 0 0 0 0 0 0 0 0 0 0 0 0 0 0 0 0 0 0 0 0
0 0 0 0 0 0 0 0 0 0 0 0 0 0 0 0 0 0 0 0 0 0 0 0 0 0 0 0 0 0 0 0 0 0 0 0 0 0 0 0 0 0 0 0
0 0 0 0 0 0 0 0 0 0 0 0 0 0 0 0 0 0 0 0 0 0 0 0 0 0 0 0 0 0 0 0 0 0 0 0 0 0 0 0 0 0 0 0
0 0 0 0 0 0 0 0 0 0 0 0 0 0 0 0 0 0 0 0 0 0 0 0 0 0 0 0 0 0 0 0 0 0 0 0 0 0 0 0 0 0 0 0
0 0 0 0 0 0 0 0 0 0 0 0 0 0 0 0 0 0 0 0 0 0 0 0 0 0 0 0 0 0 0 0 0 0 0 0 0 0 0 0 0 0 0 0
0 0 0 0 0 0 0 0 0 0 0 0 0 0 0 0 0 0 0 0 0 0 0 0 0 0 0 0 0 0 0 0 0 0 0 0 0 0 0 0 0 0 0 0
0 0 0 0 0 0 0 0 0 0 0 0 0 0 0 0 0 0 0 0 0 0 0 0 0 0 0 0 0 0 0 0 0 0 0 0 0 0 0 0 0 0 0 0
0 0 0 0 0 0 0 0 0 0 0 0 0 0 0 0 0 0 0 0 0 0 0 0 0 0 0 0 0 0 0 0 0 0 0 0 0 0 0 0 0 0 0 0
0 0 0 0 0 0 0 0 0 0 0 0 0 0 0 0 0 0 0 0 0 0 0 0 0 0 0 0 0 0 0 0 0 0 0 0 0 0 0 0 0 0 0 0
0 0 0 0 0 0 0 0 0 0 0 0 0 0 0 0 0 0 0 0 0 0 0 0 0 0 0 0 0 0 0 0 0 0 0 0 0 0 0 0 0 0 0 0
Wind_Speed
10 11 11 10 10 10 10 10 11 10 8 5 4 3 3 3 4 4 3 3 3 2 2 1 1 1 1 1 2 2 2 3 2 2 1 1 1 1 1 2 2 2 2 3
9 8 9 9 9 8 8 8 9 9 7 4 4 2 2 3 3 4 3 3 3 3 2 2 1 1 1 1 2 2 3 3 2 2 2 2 2 2 2 2 2 2 3 3
7 6 8 5 3 4 4 5 6 7 5 3 4 3 3 2 3 3 4 3 3 3 3 2 2 2 2 2 2 2 3 3 3 2 2 2 2 1 2 2 2 2 3 3
7 7 6 3 4 5 5 4 4 4 3 3 4 5 3 2 3 4 4 4 3 3 3 3 2 1 2 2 2 2 2 3 3 2 2 3 2 2 2 2 2 2 3 3
6 7 6 1 3 5 6 4 5 4 4 4 5 5 1 3 5 5 5 4 3 3 3 2 2 1 2 2 3 2 2 2 3 3 3 3 2 2 2 2 2 2 2 3
7 8 6 5 7 7 7 3 6 5 5 5 6 6 4 5 6 6 5 4 3 3 3 2 2 2 2 3 3 2 2 2 2 2 2 2 2 2 2 2 2 2 2 3
8 8 4 6 8 7 5 5 7 6 6 6 7 7 6 6 6 6 5 5 4 4 3 2 2 2 3 3 3 2 2 2 2 2 2 2 2 2 2 2 2 2 3 3
6 7 2 8 7 6 8 8 7 7 6 6 6 6 5 5 5 5 5 5 4 3 3 2 2 3 3 3 2 2 2 2 2 2 2 2 2 2 2 2 3 3 3 3
5 5 6 7 7 7 7 8 7 7 7 7 7 6 6 6 5 5 5 4 4 3 3 2 2 3 3 2 2 2 2 2 2 2 2 2 3 3 3 3 3 3 2 2
7 6 6 6 6 6 7 8 8 7 6 6 6 6 6 6 5 5 4 4 3 3 3 2 2 2 3 2 3 3 2 2 3 3 3 3 3 3 2 2 2 2 2 2
9 8 8 6 7 8 8 8 7 7 6 6 6 6 6 5 5 4 4 3 3 3 3 3 2 2 2 2 3 3 2 2 3 3 2 2 2 2 2 1 2 3 3 3
8 7 8 9 9 9 9 8 7 7 7 6 5 6 6 5 4 4 4 4 3 3 4 3 3 3 3 3 3 3 2 3 2 2 2 2 2 1 1 1 0 1 3 5
8 8 9 9 9 9 8 7 7 7 6 6 5 5 5 4 4 4 4 4 4 4 4 3 3 3 3 3 3 3 3 2 2 2 2 2 1 1 1 2 5 5 5 5
6 7 7 7 8 8 8 7 6 6 5 5 5 5 4 4 4 4 4 4 4 4 4 3 3 3 2 3 3 3 3 2 3 2 2 2 2 2 2 1 1 2 4 7
7 8 8 8 8 7 7 6 6 5 5 5 5 4 4 4 4 4 4 4 4 4 3 3 3 2 2 3 3 3 3 2 2 2 2 2 2 2 1 1 2 2 1 2
7 7 6 7 7 7 7 7 7 6 6 5 5 4 4 3 3 3 4 3 4 3 3 3 3 3 2 3 4 3 3 2 2 3 2 1 1 1 1 1 2 2 2 2
6 7 7 7 7 7 7 7 7 7 6 5 5 5 4 4 3 4 4 3 4 4 4 4 3 3 3 4 4 3 2 3 4 4 1 1 1 1 2 2 2 2 2 2
6 7 7 8 7 7 7 7 7 7 6 6 5 5 5 4 4 4 4 4 4 4 4 4 3 3 4 4 3 3 3 2 2 1 1 1 2 2 2 2 2 2 2 1
7 7 7 7 7 7 7 7 7 7 6 5 5 5 5 4 4 4 4 5 5 4 3 2 2 3 4 3 3 4 3 2 2 2 1 1 3 3 2 2 3 3 3 3
7 7 8 8 7 7 6 6 7 6 5 5 5 5 5 5 5 5 5 5 4 3 2 2 4 4 4 4 5 3 3 3 3 2 2 2 2 2 2 2 3 3 3 3
8 8 8 8 8 8 7 6 6 6 5 6 6 6 6 5 5 5 5 4 3 2 3 4 4 4 4 3 5 3 3 2 2 2 2 2 2 2 2 2 3 3 3 3
8 8 8 8 8 8 7 6 6 6 6 6 7 6 5 5 5 5 5 3 2 2 3 4 4 2 2 3 4 3 3 3 3 2 2 2 2 3 3 3 3 3 3 4
8 8 8 8 8 8 7 6 6 6 6 6 6 5 5 5 4 4 3 2 2 3 3 2 2 3 4 5 4 3 3 3 3 3 2 2 3 3 3 4 3 3 3 3
8 8 9 8 8 7 7 6 6 5 6 6 5 5 5 5 4 4 2 2 2 3 3 3 4 5 7 5 4 4 4 4 3 3 3 2 2 2 3 3 3 3 2 3
9 9 9 8 7 6 6 6 5 5 5 4 4 4 4 3 3 2 2 3 4 5 4 5 7 7 6 5 4 4 4 3 3 2 2 2 2 2 2 2 3 3 2 2
8 8 7 8 7 5 5 5 5 4 4 4 3 3 2 2 3 3 3 4 5 5 5 5 6 7 6 5 5 4 4 4 4 4 3 2 2 3 2 2 3 2 2 2
9 7 6 6 5 5 5 5 5 5 5 4 4 3 3 3 3 4 4 4 5 5 5 5 5 6 5 5 4 4 4 3 3 3 3 3 3 2 2 2 2 2 2 1
Wind_Direction
286 288 284 288 287 283 278 283 286 294 299 337 360 353 2 12 12 14 20 13 10 2 4 346 325 261 218 205 226 207 211 219 214 210 225 241 244 251 268 280 282 280 278 280
278 275 280 284 287 284 281 283 283 286 294 358 348 351 351 2 3 356 356 351 345 338 342 334 326 297 272 230 225 221 219 226 214 214 223 227 225 233 255 278 293 293 287 290
286 300 279 269 307 304 302 312 302 299 326 357 340 326 323 336 339 340 339 333 329 326 320 321 314 288 275 268 230 222 227 230 221 209 216 225 226 244 266 280 289 294 299 302
288 288 274 49 31 343 318 331 333 332 358 355 342 323 311 334 341 341 337 332 325 324 319 311 300 272 284 274 242 221 231 238 224 214 219 222 224 237 258 264 273 287 291 296
282 289 287 265 9 333 309 316 7 2 360 353 345 317 304 10 350 335 329 321 310 308 305 295 282 265 271 269 247 226 227 245 232 219 222 225 231 236 245 254 266 276 287 298
280 289 294 15 13 337 293 264 41 2 345 336 314 304 336 343 328 324 322 315 307 300 298 286 271 259 259 259 247 236 241 250 242 224 226 236 244 249 252 257 269 284 300 296
277 277 288 20 354 324 295 5 355 332 324 316 321 327 324 312 308 306 301 299 296 293 288 284 271 259 264 262 254 247 248 250 234 221 229 238 242 243 252 261 276 284 290 286
277 272 307 18 347 343 340 332 322 322 322 320 323 318 308 301 301 302 302 300 297 292 282 260 242 247 259 268 264 247 235 237 231 227 238 228 233 243 246 253 249 253 260 271
304 308 342 334 330 332 324 320 321 320 319 315 310 307 307 301 299 299 298 296 293 288 280 264 249 251 256 266 258 236 222 221 228 228 234 238 236 239 238 233 258 271 275 288
277 281 303 311 319 323 323 322 321 313 308 303 300 301 300 297 294 295 297 292 286 281 277 275 270 262 257 256 243 224 220 221 223 226 227 225 242 243 250 259 270 287 301 313
272 287 299 298 318 322 321 318 314 310 304 299 296 292 292 293 292 294 296 295 295 292 286 280 283 274 264 251 225 215 219 221 226 228 225 236 243 274 280 320 336 310 318 319
291 304 299 301 309 312 310 312 312 308 304 301 291 284 284 285 287 286 285 281 277 276 278 275 276 273 260 236 216 214 221 228 234 230 221 238 231 207 118 252 163 256 287 301
287 291 291 291 296 303 304 306 305 301 298 295 293 285 279 281 281 278 277 271 270 271 273 271 271 264 250 226 209 213 229 238 251 243 227 241 249 249 217 199 214 222 229 244
283 283 280 287 299 301 300 302 301 298 295 293 290 281 276 277 276 275 277 274 273 272 269 266 265 260 252 222 210 215 233 218 243 243 250 260 266 262 266 276 249 217 204 213
281 283 284 288 291 295 297 296 293 292 292 290 286 278 272 268 271 279 281 278 268 259 261 265 268 267 248 217 211 223 237 229 250 267 262 261 264 269 280 288 295 303 298 175
289 290 286 286 293 297 296 294 293 292 290 287 283 277 274 267 265 272 274 270 263 262 267 269 269 265 243 217 217 218 213 187 249 261 260 250 257 280 302 303 306 318 320 338
283 289 295 296 297 296 293 290 289 287 285 281 278 271 265 258 261 265 265 260 264 269 263 259 253 247 228 215 226 226 216 185 213 246 261 290 292 310 316 310 314 324 329 18
287 290 291 291 289 289 288 289 289 287 285 279 272 261 254 252 257 264 272 267 259 258 255 249 239 225 214 214 225 242 229 217 215 257 284 288 294 288 288 305 322 325 320 9
300 303 301 297 294 288 286 290 292 292 287 275 267 261 252 253 260 267 272 266 259 256 245 226 212 225 213 211 231 224 223 207 199 216 239 244 260 276 296 313 315 318 325 337
304 305 306 304 302 298 294 292 291 288 280 269 265 259 251 253 257 262 266 261 258 260 226 221 212 214 211 207 236 223 207 209 209 211 232 247 264 280 288 298 307 319 329 331
305 306 306 305 301 298 296 292 286 283 276 263 257 252 247 249 253 257 257 252 238 228 208 200 215 209 202 191 218 222 206 210 214 219 236 250 262 278 293 297 301 310 320 322
303 305 303 301 299 298 292 287 283 280 273 263 257 251 243 241 243 247 248 254 228 209 217 208 206 189 188 212 219 221 211 216 228 233 239 253 263 271 283 295 298 306 317 322
299 298 296 293 293 290 284 279 276 275 270 265 257 252 248 249 246 240 234 218 211 200 219 215 173 159 199 221 226 222 217 224 237 241 240 249 260 273 286 294 299 305 314 320
294 294 293 291 288 282 279 278 278 273 270 267 255 248 246 240 229 230 220 179 196 197 209 172 175 191 214 224 225 222 219 224 235 243 251 254 258 269 283 291 297 304 314 322
293 291 288 285 281 276 276 277 275 270 269 264 255 245 241 235 227 225 211 193 185 198 195 184 193 204 217 224 223 224 222 230 253 263 252 260 264 261 274 293 301 302 308 318
290 283 279 274 274 270 263 261 259 259 262 262 256 245 236 223 218 214 207 198 200 211 212 198 192 203 219 226 224 223 219 203 207 226 242 248 255 265 279 289 290 287 299 320
280 278 274 267 261 257 258 257 257 260 261 259 261 253 237 228 223 219 214 204 200 206 208 208 207 211 216 217 214 209 208 209 217 228 236 244 256 266 276 276 282 290 303 322